Location: Rosenheim
(47.8408°N, 12.2113°E)
Time: 05:47:27
(UTC+01:00)

ISS - Visible Passes

Search period start: 22 March 2019 00:00
Search period end: 01 April 2019 01:00
Orbit: 406 x 411 km, 51.6° (Epoch: 22 March)

Date Brightness Start Highest point End Pass type
(mag) Time Alt. Az. Time Alt. Az. Time Alt. Az.
22 Mar -2.7 19:37:14 10° SSW 19:40:04 26° SE 19:40:45 24° ESE visible
22 Mar -0.8 21:13:08 10° WSW 21:13:33 13° WSW 21:13:33 13° WSW visible
23 Mar -3.9 20:22:04 10° WSW 20:25:12 78° SW 20:25:12 78° SW visible
24 Mar -3.7 19:31:08 10° SW 19:34:22 54° SSE 19:36:40 17° ENE visible
24 Mar -1.6 21:07:47 10° W 21:09:26 25° WNW 21:09:26 25° WNW visible
25 Mar -3.4 20:16:35 10° W 20:19:51 60° NNW 20:20:44 41° NE visible
26 Mar -3.8 19:25:26 10° WSW 19:28:45 82° NNW 19:31:55 11° ENE visible
26 Mar -2.0 21:02:25 10° WNW 21:04:40 32° NW 21:04:40 32° NW visible
27 Mar -2.9 20:11:10 10° W 20:14:22 44° N 20:15:45 27° NE visible
27 Mar -0.5 21:48:04 10° WNW 21:48:29 13° WNW 21:48:29 13° WNW visible
28 Mar -3.1 19:19:56 10° W 19:23:10 53° NNW 19:26:26 10° ENE visible
28 Mar -2.4 20:56:55 10° WNW 20:59:29 38° NNW 20:59:29 38° NNW visible
29 Mar -2.8 20:05:43 10° WNW 20:08:52 40° N 20:10:27 23° ENE visible
29 Mar -0.8 21:42:25 10° WNW 21:43:11 16° WNW 21:43:11 16° WNW visible
30 Mar -2.8 19:14:28 10° WNW 19:17:38 42° N 19:20:48 10° ENE visible
30 Mar -3.0 20:51:18 10° WNW 20:54:05 49° NNW 20:54:05 49° NNW visible
31 Mar -3.0 21:00:07 10° WNW 21:03:19 45° N 21:04:59 24° ENE visible
31 Mar -1.0 22:36:44 10° WNW 22:37:42 18° WNW 22:37:42 18° WNW visible
